EN

Hourly Weather Abidos

Today, 3 December, Thursday

Time Temperature Precipitation Wind Pressure Humidity
00:00 +27°C° 0.1 mm 1 mps 756 mmHg 86%
01:00 +26°C° 0.1 mm 1 mps 755 mmHg 87%
02:00 +26°C° 0.1 mm 1 mps 755 mmHg 89%
03:00 +26°C° 0 mm 1 mps 755 mmHg 89%
04:00 +25°C° 0 mm 1 mps 755 mmHg 90%
05:00 +25°C° 0 mm 1 mps 755 mmHg 91%
06:00 +27°C° 0 mm 1 mps 755 mmHg 84%
07:00 +28°C° 0 mm 2 mps 756 mmHg 77%
08:00 +30°C° 0 mm 2 mps 757 mmHg 71%
09:00 +31°C° 0 mm 2 mps 757 mmHg 64%
10:00 +34°C° 0 mm 2 mps 756 mmHg 57%
11:00 +36°C° 0 mm 2 mps 756 mmHg 50%
12:00 +36°C° 0 mm 2 mps 755 mmHg 49%
13:00 +36°C° 0 mm 2 mps 754 mmHg 48%
14:00 +36°C° 0 mm 2 mps 753 mmHg 48%
15:00 +36°C° 0 mm 2 mps 753 mmHg 50%
16:00 +35°C° 0 mm 2 mps 753 mmHg 52%
17:00 +34°C° 0 mm 2 mps 753 mmHg 54%
18:00 +32°C° 0 mm 2 mps 754 mmHg 58%
19:00 +31°C° 0 mm 1 mps 755 mmHg 62%
20:00 +30°C° 0 mm 1 mps 756 mmHg 66%
21:00 +29°C° 0 mm 1 mps 755 mmHg 67%
22:00 +29°C° 0 mm 1 mps 755 mmHg 69%
23:00 +28°C° 0 mm 1 mps 755 mmHg 71%

Tomorrow, 4 December, Friday

Time Temperature Precipitation Wind Pressure Humidity
00:00 +28°C° 0 mm 1 mps 755 mmHg 72%
01:00 +27°C° 0 mm 1 mps 755 mmHg 74%
02:00 +27°C° 0 mm 1 mps 754 mmHg 75%
03:00 +27°C° 0 mm 1 mps 755 mmHg 77%
04:00 +26°C° 0 mm 1 mps 755 mmHg 78%
05:00 +26°C° 0 mm 1 mps 755 mmHg 80%
06:00 +28°C° 0 mm 2 mps 756 mmHg 74%
07:00 +29°C° 0 mm 2 mps 757 mmHg 68%
08:00 +31°C° 0 mm 2 mps 757 mmHg 61%
09:00 +33°C° 0 mm 3 mps 757 mmHg 57%
10:00 +35°C° 0 mm 3 mps 757 mmHg 52%
11:00 +36°C° 0 mm 3 mps 757 mmHg 47%
12:00 +37°C° 0 mm 3 mps 756 mmHg 45%
13:00 +37°C° 0 mm 3 mps 755 mmHg 44%
14:00 +37°C° 0 mm 3 mps 754 mmHg 42%
15:00 +36°C° 0 mm 3 mps 754 mmHg 45%
16:00 +36°C° 0 mm 2 mps 754 mmHg 47%
17:00 +35°C° 0 mm 2 mps 754 mmHg 50%
18:00 +34°C° 0 mm 2 mps 754 mmHg 53%
19:00 +31°C° 0 mm 1 mps 755 mmHg 57%
20:00 +30°C° 0 mm 1 mps 755 mmHg 60%
21:00 +30°C° 0 mm 1 mps 755 mmHg 62%
22:00 +29°C° 0 mm 1 mps 755 mmHg 64%
23:00 +28°C° 0 mm 1 mps 755 mmHg 66%

Day after tomorrow, 5 December, Saturday

Time Temperature Precipitation Wind Pressure Humidity
00:00 +28°C° 0 mm 1 mps 755 mmHg 68%
01:00 +28°C° 0 mm 1 mps 755 mmHg 70%
02:00 +27°C° 0 mm 1 mps 754 mmHg 72%
03:00 +27°C° 0 mm 1 mps 755 mmHg 74%
04:00 +26°C° 0 mm 1 mps 755 mmHg 76%
05:00 +26°C° 0 mm 1 mps 755 mmHg 78%
06:00 +28°C° 0 mm 1 mps 756 mmHg 73%
07:00 +29°C° 0 mm 2 mps 757 mmHg 67%
08:00 +31°C° 0 mm 2 mps 758 mmHg 61%
09:00 +32°C° 0 mm 2 mps 757 mmHg 56%
10:00 +35°C° 0 mm 2 mps 757 mmHg 50%
11:00 +37°C° 0 mm 2 mps 757 mmHg 44%
12:00 +37°C° 0 mm 2 mps 756 mmHg 43%
13:00 +38°C° 0 mm 2 mps 755 mmHg 41%
14:00 +38°C° 0 mm 2 mps 754 mmHg 40%
15:00 +37°C° 0 mm 2 mps 754 mmHg 42%
16:00 +35°C° 0 mm 1 mps 754 mmHg 44%
17:00 +35°C° 0 mm 1 mps 754 mmHg 47%
18:00 +33°C° 0.1 mm 1 mps 754 mmHg 53%
19:00 +31°C° 0.1 mm 1 mps 755 mmHg 59%
20:00 +30°C° 0.1 mm 1 mps 755 mmHg 64%
21:00 +29°C° 0 mm 1 mps 755 mmHg 66%
22:00 +29°C° 0 mm 1 mps 755 mmHg 67%
23:00 +29°C° 0 mm 1 mps 755 mmHg 69%

6 December, Sunday

Time Temperature Precipitation Wind Pressure Humidity
00:00 +28°C° 0.1 mm 1 mps 755 mmHg 71%
01:00 +28°C° 0.1 mm 1 mps 755 mmHg 74%
02:00 +27°C° 0.1 mm 1 mps 755 mmHg 77%
03:00 +27°C° 0.1 mm 1 mps 755 mmHg 79%
04:00 +26°C° 0.1 mm 1 mps 755 mmHg 80%
05:00 +26°C° 0.1 mm 1 mps 756 mmHg 82%
06:00 +28°C° 0 mm 1 mps 756 mmHg 76%
07:00 +29°C° 0 mm 2 mps 757 mmHg 70%
08:00 +31°C° 0 mm 2 mps 757 mmHg 64%
09:00 +32°C° 0 mm 2 mps 757 mmHg 57%
10:00 +35°C° 0 mm 2 mps 756 mmHg 50%
11:00 +37°C° 0 mm 2 mps 756 mmHg 43%
12:00 +37°C° 0 mm 2 mps 755 mmHg 42%
13:00 +38°C° 0 mm 2 mps 754 mmHg 41%
14:00 +38°C° 0 mm 2 mps 753 mmHg 40%
15:00 +36°C° 0 mm 1 mps 753 mmHg 42%
16:00 +35°C° 0 mm 1 mps 753 mmHg 44%
17:00 +35°C° 0 mm 1 mps 753 mmHg 47%
18:00 +33°C° 0 mm 1 mps 753 mmHg 51%
19:00 +32°C° 0 mm 1 mps 754 mmHg 55%
20:00 +30°C° 0 mm 2 mps 755 mmHg 60%
21:00 +29°C° 0.3 mm 1 mps 755 mmHg 65%
22:00 +29°C° 0.3 mm 1 mps 755 mmHg 71%
23:00 +28°C° 0.3 mm 1 mps 756 mmHg 76%

7 December, Monday

Time Temperature Precipitation Wind Pressure Humidity
00:00 +27°C° 0.1 mm 1 mps 755 mmHg 79%
01:00 +27°C° 0.1 mm 1 mps 755 mmHg 81%
02:00 +26°C° 0.1 mm 1 mps 755 mmHg 84%
03:00 +24°C° 0 mm 0 mps 755 mmHg 84%
04:00 +24°C° 0 mm 0 mps 755 mmHg 84%
05:00 +24°C° 0 mm 0 mps 756 mmHg 85%
06:00 +25°C° 0 mm 0 mps 756 mmHg 77%
07:00 +27°C° 0 mm 0 mps 757 mmHg 70%
08:00 +28°C° 0 mm 0 mps 757 mmHg 63%
09:00 +30°C° 0 mm 0 mps 757 mmHg 55%
10:00 +34°C° 0 mm 1 mps 756 mmHg 47%
11:00 +37°C° 0 mm 2 mps 756 mmHg 39%
12:00 +37°C° 0 mm 2 mps 755 mmHg 36%
13:00 +38°C° 0 mm 2 mps 754 mmHg 34%
14:00 +38°C° 0 mm 2 mps 753 mmHg 31%
15:00 +38°C° 0 mm 2 mps 753 mmHg 33%
16:00 +37°C° 0 mm 2 mps 753 mmHg 36%
17:00 +36°C° 0 mm 2 mps 752 mmHg 38%
18:00 +33°C° 0 mm 1 mps 753 mmHg 42%
19:00 +32°C° 0 mm 1 mps 754 mmHg 45%
20:00 +30°C° 0 mm 1 mps 755 mmHg 49%
21:00 +30°C° 0 mm 1 mps 755 mmHg 50%
22:00 +30°C° 0 mm 1 mps 756 mmHg 51%
23:00 +29°C° 0 mm 1 mps 756 mmHg 53%

8 December, Tuesday

Time Temperature Precipitation Wind Pressure Humidity
00:00 +29°C° 0.1 mm 1 mps 756 mmHg 58%
01:00 +28°C° 0.1 mm 1 mps 756 mmHg 63%
02:00 +27°C° 0.1 mm 1 mps 755 mmHg 67%
03:00 +27°C° 0 mm 1 mps 756 mmHg 69%
04:00 +25°C° 0 mm 0 mps 756 mmHg 71%
05:00 +24°C° 0 mm 0 mps 757 mmHg 73%
06:00 +28°C° 0 mm 1 mps 757 mmHg 68%
07:00 +30°C° 0 mm 1 mps 758 mmHg 63%
08:00 +31°C° 0 mm 1 mps 758 mmHg 57%
09:00 +33°C° 0 mm 1 mps 758 mmHg 53%
10:00 +35°C° 0 mm 1 mps 758 mmHg 48%
11:00 +36°C° 0 mm 1 mps 757 mmHg 43%
12:00 +36°C° 0 mm 1 mps 756 mmHg 43%
13:00 +36°C° 0 mm 1 mps 755 mmHg 42%
14:00 +36°C° 0 mm 1 mps 754 mmHg 42%
15:00 +35°C° 0 mm 1 mps 754 mmHg 48%
16:00 +33°C° 0 mm 1 mps 754 mmHg 53%
17:00 +32°C° 0 mm 1 mps 754 mmHg 59%
18:00 +31°C° 0.2 mm 1 mps 754 mmHg 63%
19:00 +28°C° 0.2 mm 0 mps 755 mmHg 68%
20:00 +27°C° 0.2 mm 0 mps 755 mmHg 73%
21:00 +26°C° 0.6 mm 0 mps 756 mmHg 77%
22:00 +25°C° 0.6 mm 0 mps 756 mmHg 80%
23:00 +25°C° 0.6 mm 0 mps 756 mmHg 84%
Show more